Regional Weather Roundup
Issued by NWS

Home | Current Version | Previous Version | Graphics & Text | Print | Product List | Glossary Off
Versions: 1 2 3 4 5 6 7 8 9 10 11 12 13 14 15 16 17 18 19 20 21 22 23 24 25 26 27 28 29 30 31 32 33 34 35 36 37 38 39 40 41 42 43 44 45 46 47 48 49 50

000
ASUS43 KTOP 020908
RWRKS

WEATHER ROUNDUP FOR KANSAS
NATIONAL WEATHER SERVICE GOODLAND KS
400 AM CDT WED SEP 02 2015

NOTE:  "FAIR" INDICATES FEW OR NO CLOUDS BELOW 12,000 FEET WITH NO
SIGNIFICANT WEATHER AND/OR OBSTRUCTIONS TO VISIBILITY.

KSZ001>006-013>018-027>032-041>047-021000-
NORTHWEST KANSAS

CITY           SKY/WX    TMP DP  RH WIND       PRES   REMARKS
GOODLAND       MOCLDY    70  57  63 SW5       29.97S
HAYS           CLEAR     75  55  50 S8        29.93S
HILL CITY      CLEAR     78  57  48 SW13G22   29.91S
RUSSELL        CLEAR     77  60  55 S17       29.92S
$$

KSZ061>065-074>080-084>089-021000-
SOUTHWEST KANSAS

CITY           SKY/WX    TMP DP  RH WIND       PRES   REMARKS
DODGE CITY     CLEAR     71  57  61 S12       29.99S
ELKHART          N/A     66  55  67 SW6         N/A
GARDEN CITY    PTCLDY    66  56  70 SE8       29.98S
GREAT BEND     CLEAR     75  61  60 S15       29.95S
LIBERAL        PTCLDY    73  54  49 S9        30.00F
PRATT          CLEAR     72  59  64 MISG      30.00S
$$

KSZ066>073-081>083-090>101-021000-
SOUTHEAST KANSAS

CITY           SKY/WX    TMP DP  RH WIND       PRES   REMARKS
CHANUTE        CLEAR     70  67  90 S7        30.01S
COFFEYVILLE    CLEAR     70  67  90 S8        30.00F
HUTCHINSON     PTCLDY    75  63  66 S10       29.97S
MEDICINE LODGE   N/A     74  62  66 SE3       29.99R
NEWTON         PTCLDY    75  61  60 S14       30.00S
PARSONS        CLEAR     71  68  90 S3        30.02S
WICHITA INTL   MOCLDY    75  63  66 S12       29.98S
WICHITA JABRA  PTCLDY    75  63  66 S13       29.98S
WICHITA MCCONL PTCLDY    73  64  72 S9        29.99R
WINFIELD       PTCLDY    74  64  71 S7        30.01R
$$

KSZ007>012-019>026-033>040-048>060-102>105-021000-
NORTHEAST KANSAS

CITY           SKY/WX    TMP DP  RH WIND       PRES   REMARKS
CONCORDIA      CLEAR     75  66  73 S17       29.90S
EMPORIA        CLEAR     72  67  84 S15       29.97S
LAWRENCE       CLEAR     72  66  81 SE8       29.98R
MANHATTAN      PTCLDY    77  66  68 SW9       29.93S
MARYSVILLE     CLEAR    N/A N/A N/A S8        29.92S
OLATHE IND     CLEAR     71  66  84 S8        30.00S
OLATHE EXE     CLEAR     70  65  84 S6        29.99S
SALINA         CLEAR     79  64  60 S17G26    29.92F
TOPEKA BILLARD PTCLDY    75  67  76 S5        29.95F
TOPEKA FORBES  PTCLDY    76  67  73 S10       29.96S
$$


USA.gov is the U.S. government's official web portal to all federal, state and local government web resources and services.